TimeGMT,TemperatureF,Dew PointF,Humidity,Sea Level PressureIn,VisibilityMPH,Wind Direction,Wind SpeedMPH,Gust SpeedMPH,PrecipitationIn,Events,Conditions,WindDirDegrees,DateUTC
12:00 AM,44,44,100,29.46,1,East,15.7,,,Rain,Light Rain,90,2013-03-06 00:00:00
12:00 AM,44.6,44.6,100,29.44,1.0,East,16.1,-,N/A,Rain,Light Rain,90,2013-03-06 00:00:00
12:30 AM,44.6,44.6,100,29.42,0.9,East,18.4,-,N/A,Rain,Light Rain,90,2013-03-06 00:30:00
1:00 AM,44.6,44.6,100,29.42,0.7,East,15.0,-,N/A,Rain,Light Rain,90,2013-03-06 01:00:00
1:30 AM,44.6,44.6,100,29.42,0.7,East,15.0,-,N/A,Rain,Light Rain,90,2013-03-06 01:30:00
2:00 AM,44.6,44.6,100,29.42,0.7,East,13.8,-,N/A,Rain,Light Rain,90,2013-03-06 02:00:00
2:30 AM,44.6,44.6,100,29.39,0.3,East,13.8,-,N/A,Fog,Light Drizzle,90,2013-03-06 02:30:00
3:00 AM,44.6,44.6,100,29.39,0.2,East,12.7,-,N/A,Fog,Light Drizzle,90,2013-03-06 03:00:00
3:30 AM,44.6,44.6,100,29.39,0.2,East,13.8,-,N/A,Fog,Light Drizzle,90,2013-03-06 03:30:00
4:00 AM,44.6,44.6,100,29.39,0.5,East,12.7,-,N/A,Fog,Fog,90,2013-03-06 04:00:00
4:30 AM,44.6,44.6,100,29.39,1.0,East,13.8,-,N/A,,Light Drizzle,90,2013-03-06 04:30:00
5:00 AM,44.6,44.6,100,29.36,1.0,East,12.7,-,N/A,,Overcast,90,2013-03-06 05:00:00
5:30 AM,44.6,44.6,100,29.36,1.7,East,12.7,-,N/A,,Overcast,90,2013-03-06 05:30:00
6:00 AM,45,45,100,29.39,2,East,15.7,,,,Mist,90,2013-03-06 06:00:00
6:00 AM,44.6,44.6,100,29.36,1.6,East,15.0,-,N/A,,Mostly Cloudy,90,2013-03-06 06:00:00
6:30 AM,44.6,44.6,100,29.36,1.9,East,13.8,-,N/A,,Mostly Cloudy,100,2013-03-06 06:30:00
7:00 AM,44.6,44.6,100,29.36,2.2,East,15.0,-,N/A,,Mostly Cloudy,100,2013-03-06 07:00:00
7:30 AM,44.6,44.6,100,29.39,2.5,East,13.8,-,N/A,,Mostly Cloudy,100,2013-03-06 07:30:00
8:00 AM,44.6,44.6,100,29.39,2.2,East,13.8,-,N/A,,Mostly Cloudy,100,2013-03-06 08:00:00
8:30 AM,46.4,46.4,100,29.39,1.4,East,12.7,-,N/A,,Light Drizzle,100,2013-03-06 08:30:00
9:00 AM,46.4,46.4,100,29.39,1.4,East,13.8,-,N/A,,Light Drizzle,90,2013-03-06 09:00:00
9:30 AM,46.4,46.4,100,29.39,1.2,East,15.0,-,N/A,,Mostly Cloudy,100,2013-03-06 09:30:00
10:00 AM,46.4,46.4,100,29.39,1.0,East,16.1,-,N/A,,Mostly Cloudy,100,2013-03-06 10:00:00
10:30 AM,46.4,46.4,100,29.39,1.1,East,16.1,-,N/A,,Mostly Cloudy,100,2013-03-06 10:30:00
11:00 AM,46.4,46.4,100,29.39,1.7,East,15.0,-,N/A,,Mostly Cloudy,100,2013-03-06 11:00:00
11:30 AM,46.4,46.4,100,29.39,1.7,East,15.0,-,N/A,,Mostly Cloudy,100,2013-03-06 11:30:00
12:00 PM,47,47,98,29.40,2,East,15.7,,,,Mist,100,2013-03-06 12:00:00
12:00 PM,46.4,46.4,100,29.39,1.9,East,15.0,-,N/A,,Overcast,100,2013-03-06 12:00:00
12:30 PM,46.4,46.4,100,29.39,1.7,East,16.1,-,N/A,,Overcast,100,2013-03-06 12:30:00
1:00 PM,46.4,46.4,100,29.36,1.1,East,16.1,-,N/A,,Overcast,100,2013-03-06 13:00:00
1:30 PM,46.4,46.4,100,29.36,1.0,ESE,13.8,-,N/A,,Overcast,110,2013-03-06 13:30:00
2:00 PM,46.4,46.4,100,29.36,0.7,East,13.8,-,N/A,,Overcast,100,2013-03-06 14:00:00
2:30 PM,46.4,46.4,100,29.36,1.1,East,13.8,-,N/A,,Overcast,100,2013-03-06 14:30:00
3:00 PM,46.4,46.4,100,29.36,0.7,East,13.8,-,N/A,,Overcast,100,2013-03-06 15:00:00
3:30 PM,46.4,46.4,100,29.36,0.9,East,15.0,-,N/A,Rain,Light Rain,90,2013-03-06 15:30:00
4:00 PM,46.4,46.4,100,29.33,0.7,East,16.1,-,N/A,Rain,Light Rain,100,2013-03-06 16:00:00
4:30 PM,46.4,46.4,100,29.33,0.6,East,15.0,-,N/A,Fog-Rain,Light Rain,90,2013-03-06 16:30:00
5:00 PM,46.4,46.4,100,29.33,0.5,East,16.1,-,N/A,Fog-Rain,Light Rain,90,2013-03-06 17:00:00
5:30 PM,46.4,46.4,100,29.33,0.5,East,15.0,-,N/A,Fog-Rain,Light Rain,90,2013-03-06 17:30:00
6:00 PM,46,46,98,29.36,1,East,15.7,,,Rain,Light Rain,100,2013-03-06 18:00:00
6:00 PM,46.4,46.4,100,29.33,0.6,East,15.0,-,N/A,Fog-Rain,Light Rain,100,2013-03-06 18:00:00
6:30 PM,46.4,46.4,100,29.33,0.6,East,16.1,-,N/A,Fog-Rain,Light Rain,90,2013-03-06 18:30:00
7:00 PM,46.4,46.4,100,29.36,0.7,East,16.1,-,N/A,Rain,Light Rain,90,2013-03-06 19:00:00
7:30 PM,46.4,46.4,100,29.36,0.6,East,15.0,-,N/A,Rain,Light Rain,90,2013-03-06 19:30:00
8:00 PM,46.4,46.4,100,29.36,0.9,East,16.1,-,N/A,Rain,Light Rain,90,2013-03-06 20:00:00
8:30 PM,46.4,46.4,100,29.36,0.6,East,13.8,-,N/A,Fog-Rain,Light Rain,90,2013-03-06 20:30:00
9:00 PM,46.4,46.4,100,29.36,1.0,East,13.8,-,N/A,Rain,Light Rain,90,2013-03-06 21:00:00
9:30 PM,46.4,46.4,100,29.36,0.7,East,13.8,-,N/A,Rain,Light Rain,100,2013-03-06 21:30:00
10:00 PM,46.4,46.4,100,29.33,0.7,East,13.8,-,N/A,Rain,Light Rain,90,2013-03-06 22:00:00
10:30 PM,46.4,46.4,100,2.75,1.1,East,15.0,-,N/A,Rain,Light Rain,100,2013-03-06 22:30:00
11:00 PM,46.4,46.4,100,29.33,0.7,East,12.7,-,N/A,Rain,Light Rain,100,2013-03-06 23:00:00
11:30 PM,46.4,46.4,100,29.33,1.0,East,15.0,-,N/A,Rain,Light Rain,90,2013-03-06 23:30:00